Regional Weather Roundup
Issued by NWS

Home | Current Version | Previous Version | Graphics & Text | Print | Product List | Glossary On
Versions: 1 2 3 4 5 6 7 8 9 10 11 12 13 14 15 16 17 18 19 20 21 22 23 24 25 26 27 28 29 30 31 32 33 34 35 36 37 38 39 40 41 42 43 44 45 46 47 48 49 50
000
ASUS43 KMPX 231601
RWRMN
WEATHER ROUNDUP FOR MINNESOTA
NATIONAL WEATHER SERVICE TWIN CITIES/CHANHASSEN MN
1100 AM CDT TUE SEP 23 2014


NOTE: "FAIR" INDICATES FEW OR NO CLOUDS BELOW 12,000 FEET WITH NO
SIGNIFICANT WEATHER AND/OR OBSTRUCTIONS TO VISIBILITY. N/A MEANS
CURRENT SKY AND/OR WEATHER CONDITIONS ARE NOT AVAILABLE.

MNZ060>063-068>070-231700-
   Twin Cities Metro

CITY           SKY/WX    TMP DP  RH WIND       PRES   REMARKS
TWIN CITIES    MOSUNNY   67  53  61 S8        30.23S
ST PAUL        SUNNY     65  54  67 SE8       30.24S
CRYSTAL        SUNNY     69  52  54 S9        30.21S
BLAINE         PTSUNNY   68  55  64 S10       30.22F
LAKEVILLE      MOSUNNY   66  54  63 S6        30.23S
EDEN PRAIRIE   MOSUNNY   67  54  63 S10       30.21F
SOUTH ST PAUL  MOSUNNY   65  53  64 SE5       30.23F
LAKE ELMO      FAIR      66  54  63 S6        30.25S
$$
MNZ001>005-007-008-013>017-022>024-027-028-231700-
   Northwest Minnesota

CITY           SKY/WX    TMP DP  RH WIND       PRES   REMARKS
BEMIDJI        SUNNY     66  51  59 S12       30.11S
HALLOCK        SUNNY     68  54  60 S17       30.00S
ROSEAU         SUNNY     68  55  64 S9        30.05S
WARROAD        SUNNY     68  57  68 S7        30.06F
THIEF RVR FALL SUNNY     66  54  63 S13       30.05F
CROOKSTON      SUNNY     66  54  63 S13       30.05S
FOSSTON        SUNNY     70  52  52 SE7       30.08S
DETROIT LAKES  SUNNY     64  54  68 S10       30.11S
MOORHEAD       SUNNY     66  55  68 S13       30.07S
PARK RAPIDS    SUNNY     64  51  62 S13       30.13S
MAHNOMEN       FAIR      67  53  60 S10       30.08S
$$
MNZ006-009>011-018-025>026-231700-
   North Central Minnesota

CITY           SKY/WX    TMP DP  RH WIND       PRES   REMARKS
BAUDETTE       SUNNY     67  53  61 S7        30.09F
FLAG ISLAND    SUNNY     61  54  77 S12       30.06S
INTL FALLS     SUNNY     67  51  56 S8        30.13F
WASKISH        SUNNY     68  55  64 CALM      30.10F
BIG FORK       SUNNY     68  54  60 S8G18     30.15F
LONGVILLE      SUNNY     66  54  63 SE9       30.15S
GRAND RAPIDS   SUNNY     64  52  63 S13       30.18S
CRANE LAKE     SUNNY     64  52  63 S6        30.18S
ORR            SUNNY     68  48  49 S6        30.14F
COOK           SUNNY     68  52  56 SW9       30.18S
WALKER         FAIR      64  51  62 S7        30.13S
$$
MNZ012-019>021-037-231700-
   Northeast Minnesota

CITY           SKY/WX    TMP DP  RH WIND       PRES   REMARKS
DULUTH         SUNNY     67  51  56 SW9       30.22R
ELY            SUNNY     68  50  52 S9        30.19F
HIBBING        SUNNY     65  52  62 S6        30.19F
EVELETH        SUNNY     63  52  67 S3        30.21S
DULUTH HARBOR  SUNNY     64  55  72 SW6       30.22S
TWO HARBORS    SUNNY     66  55  68 S5        30.20S
SILVER BAY     SUNNY     68  55  64 S6        30.19S
GRAND MARAIS     N/A     56  50  80 SW6       30.20R
G MARAIS ARPRT SUNNY     70  46  43 S6        30.23S
$$
MNZ029>031-032-039>041-046>048-054>057-064-231700-
   West Central Minnesota

CITY           SKY/WX    TMP DP  RH WIND       PRES   REMARKS
FERGUS FALLS   MOSUNNY   64  50  59 S13       30.10S
WHEATON        PTSUNNY   64  54  68 SE12      30.11S
MORRIS         MOSUNNY   64  54  68 S13       30.12S
ALEXANDRIA     MOSUNNY   65  53  65 S12       30.15S
ELBOW LAKE     FAIR      64  53  67 S13       30.11F
WADENA         SUNNY     66  52  59 S13       30.13S
GLENWOOD       MOSUNNY   64  54  68 S9        30.15F
APPLETON       MOSUNNY   66  54  63 S8        30.12S
BENSON         MOSUNNY   66  54  63 SW14      30.14S
ORTONVILLE     MOSUNNY   63  52  67 S12       30.11S
MADISON        PTSUNNY   66  55  68 S12       30.12F
WILLMAR        FAIR      66  52  59 S6        30.18S
$$
MNZ033>034-036-042>043-049>051-058-059-231700-
   Central Minnesota

CITY           SKY/WX    TMP DP  RH WIND       PRES   REMARKS
ST CLOUD       MOSUNNY   69  51  52 S12       30.19S
SAUK CENTRE    FAIR      65  53  65 SE9       30.16F
PAYNESVILLE    MOSUNNY   60  52  72 E7        30.18S
AITKIN         SUNNY     68  54  60 S9        30.17S
PINE RIVER     SUNNY     64  54  68 S10       30.18S
BRAINERD       SUNNY     66  52  60 S15G21    30.17F
STAPLES        SUNNY     63  50  63 S10       30.15S HAZE
LONG PRAIRIE   FAIR      63  52  67 SE8       30.17S
LITTLE FALLS   SUNNY     64  50  59 S9        30.18S
LITCHFIELD     MOSUNNY   66  57  72 SE6       30.19S
BUFFALO        MOSUNNY   65  52  61 SE7       30.21F
MAPLE LAKE     MOSUNNY   66  56  70 S5        30.21S
$$
MNZ037-044-045-052-053-231700-
   East Central Minnesota

CITY           SKY/WX    TMP DP  RH WIND       PRES   REMARKS
PRINCETON      SUNNY     68  54  60 S7        30.21S
MORA           SUNNY     64  52  63 SE5       30.23S
CAMBRIDGE      SUNNY     70  54  56 SE8       30.20S
RUSH CITY      SUNNY     66  54  65 S5        30.23S
MOOSE LAKE     SUNNY     64  52  63 S6        30.20S
HINCKLEY       FAIR      64  55  72 S8        30.22F
CLOQUET        SUNNY     64  52  63 S6        30.22S
MCGREGOR       SUNNY     66  52  59 S10       30.20S
$$
MNZ071>073-080-081-089-090-097-098-231700-
   Southwest Minnesota

CITY           SKY/WX    TMP DP  RH WIND       PRES   REMARKS
MONTEVIDEO     PTSUNNY   66  55  68 SW9       30.15S
GRANITE FALLS  PTSUNNY   65  54  65 S12       30.17S
CANBY          CLOUDY    61  53  74 S8        30.14S
MARSHALL       CLOUDY    63  52  67 S14       30.15S
REDWOOD FALLS  PTSUNNY   68  54  60 S15       30.17F
OLIVIA         PTSUNNY   64  52  63 S8        30.17S
PIPESTONE      LGT RAIN  57  54  88 S9        30.16S
WINDOM         CLOUDY    64  52  63 S9        30.19S
WORTHINGTON    CLOUDY    55  54  94 S7        30.19F
JACKSON        CLOUDY    63  52  67 S8        30.21S
TRACY          CLOUDY    62  53  74 S10       30.17S
SLAYTON        LGT RAIN  57  55  91 CALM      30.19S
$$
MNZ065>067-074>077-082>085-091>093-231700-
   South Central Minnesota

CITY           SKY/WX    TMP DP  RH WIND       PRES   REMARKS
MANKATO        MOSUNNY   66  52  59 S12       30.22S
NEW ULM        PTSUNNY   63  55  77 S10       30.20S
ST JAMES       PTSUNNY   68  54  60 S12       30.21F
FAIRMONT       PTSUNNY  N/A N/A N/A S12       30.21S
GLENCOE        MOSUNNY   67  52  57 S6        30.20S
FARIBAULT      MOSUNNY   70  50  49 S7        30.24F
OWATONNA       MOSUNNY   66  54  63 S8        30.25S
WASECA         MOSUNNY   66  48  52 S9G16     30.25S
ALBERT LEA     MOSUNNY   64  54  68 S6        30.25S
$$
MNZ078>079-086>088-094>096-231700-
   Southeast Minnesota

CITY           SKY/WX    TMP DP  RH WIND       PRES   REMARKS
ROCHESTER      SUNNY     66  53  63 S10       30.29S
RED WING       SUNNY     66  54  63 SE6       30.24F
STANTON        MOSUNNY   70  54  57 S8        30.23S
DODGE CENTER   SUNNY     66  54  63 S10       30.26S
WINONA         SUNNY     57  55  94 SE5       30.28F
AUSTIN         MOSUNNY   63  54  72 S8        30.26F
PRESTON        SUNNY     65  57  75 S10       30.29F
$$
ABBREVIATIONS USED IN REMARKS
   TC - TEMPERATURES IN CELSIUS
  WCI - WIND CHILL INDEX
   HX - HEAT INDEX
  VSB - VISIBILITY
$$



USA.gov is the U.S. government's official web portal to all federal, state and local government web resources and services.